{"data":{"norad_id":58600,"epoch":"2026-05-24T22:15:58.987584Z","epoch_age_seconds":80955,"freshness":"FRESH","line1":"1 58600U 23200M   26144.92776606 -.00021165  00000+0 -75970-3 0  9993","line2":"2 58600  43.0039  98.0273 0001664 282.4311  77.6354 15.27668649135271","mean_motion":15.27668649,"eccentricity":0.0001664,"inclination_deg":43.0039,"raan_deg":98.0273,"arg_perigee_deg":282.4311,"mean_anomaly_deg":77.6354,"bstar":-0.0007597,"rev_number":13527,"period_min":94.261278513676,"perigee_km":481.64200468063,"apogee_km":483.9253190769,"semimajor_km":6860.9206618788,"source":"CELESTRAK","updated_at":"2026-05-25T13:38:18.700613Z"}}